Погода в Александровке

Россия / Оренбургская область     53°04′44″N   53°19′49″E
темп.,
°C
ветер,
м/с
пор.,
м/с
влажн.,
%
обл.,
%
осадки,
мм/ч
давл.,
гПа
погр.,
м
26 сентября, вс
вс2623:00+11юв2256100 0.0 100936
02:00+9юз1166100 0.0 100811
05:00+8зсз3586100 0.0 1009118
08:00+7з379699 0.0 1009201
11:00+12зсз4562100 0.0 1008591
14:00+16зсз344985 0.0 10081261
17:00+16зсз2348100 0.0 10071453
20:00+12св226299 0.0 100612
27 сентября, пн
пн2723:00+11вюв1166100 0.0 100511
02:00+10всв2268100 0.0 100415
05:00+10в3564100 0.0 1004126
08:00+10в51070100 0.0 1004393
11:00+10в61054100 0.0 1005640
14:00+14в783873 0.0 10051499
17:00+13всв6838100 0.0 10071516
20:00+8всв91352100 0.0 1010799
28 сентября, вт
вт2823:00+5св71164100 0.0 1012686
02:00+3св6117042 0.0 1013682
05:00+4св61070100 0.0 1015775
08:00+4св61175100 0.0 1016823
11:00+5всв8965100 0.0 10181107
14:00+7всв7854100 0.0 10191402
17:00+9св6944100 0.0 10201786
20:00+7св61050100 0.0 1022645
29 сентября, ср
ср2923:00+6св5955100 0.0 1023394
02:00+4св4862100 0.0 1024280
05:00+2св3774100 0.0 1025211
08:00+1ссв397887 0.0 1026287
11:00+6св67495 0.0 1027996
14:00+9св673941 0.0 10261650
17:00+9св673583 0.0 10261970
20:00+5ссв38498 0.0 1028145
30 сентября, чт
чт3023:00+3св36586 0.0 102999
02:00+2св336334 0.0 103041
05:00+1ссв32685 0.0 103025
08:00+1ссв22705 0.0 103136
11:00+7ссв34465 0.0 1031677
14:00+10ссв33365 0.0 10301628
17:00+10с34345 0.0 10291756
20:00+5ссз33485 0.0 103024